Content
SEND FEEDBACK

Daily
Averages
Monthly
Summary
United States of America

EMPORIA, VIRGINIA


Home > North America > United States > Virginia
Elevation: 33 meters     Latitude: 36 42N     Longitude: 077 30W

WEATHER
 
SELECT A DAY
Number of Records: 293,646;   Date Range: 2/28/02 - 8/12/14
 
SHARE

PRINT THIS DATA

[ ← Previous Day ]
WEATHER ALMANAC - 23 JANUARY, 2013
[ Next Day → ]
[ °F ]   °C
Weather ElementAverageHighLow
Temperature-2.4 °C2 °C (2:55 pm)-9 °C (5:55 am)
Dewpoint-13.1 °C-7 °C (9:15 pm)-17 °C (1:55 pm)
Humidity47.1 %79 % (6:55 am)24 % (2:55 pm)
Barometer1025.4 hPa1029.1 hPa (9:15 am)1019 hPa (11:55 pm)
Wind Speed4.8 km/h16.7 km/h (12:55 pm)
Wind Gust25.9 km/h (1:55 pm)
Weather ElementAverage
Visibility16.1 km
Wind DirectionESE (127.6 °)

Weather ElementTotal
Precipitation---
Heating Degree Days21.8 (Base 18.3)
Averaged from 67 records on 23 January, 2013
WEATHER CONDITIONS BREAKOUT
WIND DIRECTION BREAKOUT
WEATHER BY HOUR - 23 JANUARY, 2013
[ °F ]   °C
Local TimeTemperatureDewpointHumidityBarometerVisibilityWind DirectionWind SpeedGust SpeedPrecipitationEventsConditions
12:35 AM-7 °C-14 °C58 %1026.1 hPa16.1 kmNW (310°)11.1 km/hClear
12:55 AM-6 °C-15 °C50 %1026.4 hPa16.1 kmWNW (290°)5.6 km/hClear
1:15 AM-6 °C-15 °C50 %1026.4 hPa16.1 kmWNW (300°)5.6 km/hClear
1:35 AM-7 °C-15 °C54 %1026.8 hPa16.1 kmWNW (300°)7.4 km/hClear
1:55 AM-6 °C-15 °C50 %1026.8 hPa16.1 kmWNW (300°)9.3 km/hClear
2:15 AM-7 °C-15 °C54 %1026.8 hPa16.1 kmCalmClear
2:35 AM-7 °C-15 °C54 %1027.1 hPa16.1 kmNNW (330°)7.4 km/hClear
2:55 AM-7 °C-13 °C63 %1027.1 hPa16.1 kmNNW (340°)5.6 km/hMostly Cloudy
3:15 AM-6 °C-13 °C58 %1027.1 hPa16.1 kmNorth (350°)7.4 km/hOvercast
3:35 AM-6 °C-13 °C58 %1027.4 hPa16.1 kmNNW (340°)7.4 km/hOvercast
3:55 AM-6 °C-14 °C54 %1027.4 hPa16.1 kmNorth (350°)9.3 km/hOvercast
4:15 AM-6 °C-13 °C58 %1027.4 hPa16.1 kmNorth (350°)5.6 km/hOvercast
4:35 AM-6 °C-14 °C54 %1027.4 hPa16.1 kmCalmOvercast
4:55 AM-6 °C-14 °C54 %1027.4 hPa16.1 kmCalmMostly Cloudy
5:15 AM-7 °C-13 °C63 %1027.4 hPa16.1 kmCalmClear
5:35 AM-8 °C-13 °C68 %1027.8 hPa16.1 kmCalmClear
5:55 AM-9 °C-13 °C73 %1027.8 hPa16.1 kmCalmClear
6:15 AM-8 °C-12 °C73 %1028.1 hPa16.1 kmCalmClear
6:35 AM-8 °C-12 °C73 %1028.4 hPaCalmClear
6:55 AM-9 °C-12 °C79 %1028.4 hPa16.1 kmCalmClear
8:15 AM-7 °C-12 °C68 %1028.8 hPaCalm
8:55 AM-5 °C-13 °C54 %1028.8 hPa16.1 kmCalmClear
9:15 AM-5 °C-13 °C54 %1029.1 hPa16.1 kmCalmClear
9:35 AM-4 °C-14 °C46 %1028.8 hPa16.1 kmCalmClear
9:55 AM-3 °C-14 °C43 %1029.1 hPa16.1 kmCalmClear
10:15 AM-3 °C-16 °C37 %1029.1 hPa16.1 kmCalmClear
10:35 AM-3 °C-16 °C37 %1029.1 hPa16.1 kmWest (260°)5.6 km/hClear
10:55 AM-2 °C-16 °C34 %1028.8 hPa16.1 kmSW (220°)11.1 km/hClear
11:15 AM-2 °C-15 °C37 %1028.8 hPa16.1 kmWest (260°)7.4 km/hClear
11:35 AM-2 °C-16 °C34 %1028.1 hPa16.1 kmSW (230°)7.4 km/hClear
11:55 AM-1 °C-16 °C32 %1027.4 hPa16.1 kmWSW (240°)13 km/hClear
12:15 PM-1 °C-16 °C32 %1027.1 hPa16.1 kmSW (220°)7.4 km/hClear
12:35 PM0 °C-15 °C32 %1026.1 hPa16.1 kmSSW (210°)7.4 km/hClear
12:55 PM0 °C-16 °C30 %1025.7 hPa16.1 kmWest (260°)16.7 km/hClear
1:15 PM0 °C-16 °C30 %1025.4 hPa16.1 kmWest (260°)16.7 km/hClear
1:35 PM1 °C-16 °C28 %1025.1 hPa16.1 kmSSW (210°)16.7 km/hClear
1:55 PM1 °C-17 °C25 %1024.4 hPa16.1 kmWest (260°)13 km/h25.9 km/hClear
2:15 PM1 °C-17 °C25 %1024.4 hPa16.1 kmWNW (290°)16.7 km/hClear
2:35 PM1 °C-17 °C25 %1024 hPa16.1 kmWSW (250°)11.1 km/hClear
2:55 PM2 °C-17 °C24 %1024 hPa16.1 kmWSW (250°)9.3 km/hMostly Cloudy
3:15 PM2 °C-17 °C24 %1024 hPa16.1 kmWest (280°)14.8 km/hMostly Cloudy
3:35 PM2 °C-17 °C24 %1024 hPa16.1 kmWest (270°)11.1 km/hMostly Cloudy
3:55 PM1 °C-17 °C25 %1023.7 hPa16.1 kmSW (230°)11.1 km/hOvercast
4:15 PM1 °C-16 °C28 %1023.7 hPa16.1 kmWest (270°)9.3 km/hScattered Clouds
4:35 PM1 °C-16 °C28 %1023.7 hPa16.1 kmWest (280°)7.4 km/hClear
4:55 PM1 °C-16 °C28 %1023.7 hPa16.1 kmCalmClear
5:15 PM0 °C-15 °C32 %1023.7 hPa16.1 kmCalmMostly Cloudy
5:35 PM0 °C-12 °C41 %1023.7 hPa16.1 kmCalmOvercast
5:55 PM0 °C-11 °C44 %1023.7 hPa16.1 kmCalmOvercast
6:15 PM0 °C-11 °C44 %1023.7 hPa16.1 kmCalmOvercast
6:35 PM0 °C-11 °C44 %1023.4 hPa16.1 kmCalmOvercast
6:55 PM0 °C-11 °C44 %1023 hPa16.1 kmCalmOvercast
7:15 PM0 °C-10 °C48 %1022.7 hPa16.1 kmCalmOvercast
7:35 PM0 °C-8 °C55 %1022.7 hPa16.1 kmCalmOvercast
7:55 PM0 °C-8 °C55 %1022.4 hPa16.1 kmCalmOvercast
8:15 PM0 °C-9 °C51 %1022.4 hPa16.1 kmCalmOvercast
8:35 PM0 °C-10 °C48 %1022 hPa16.1 kmCalmOvercast
8:55 PM0 °C-9 °C51 %1022 hPa16.1 kmCalmOvercast
9:15 PM0 °C-7 °C60 %1021.7 hPa16.1 kmCalmOvercast
9:35 PM0 °C-8 °C55 %1021.7 hPa16.1 kmENE (60°)5.6 km/hOvercast
9:55 PM0 °C-8 °C55 %1021.3 hPa16.1 kmCalmOvercast
10:15 PM0 °C-8 °C55 %1021 hPa16.1 kmCalmOvercast
10:35 PM0 °C-8 °C55 %1020.7 hPa16.1 kmCalmOvercast
10:55 PM0 °C-7 °C60 %1020 hPa16.1 kmENE (60°)7.4 km/hOvercast
11:15 PM0 °C-7 °C60 %1020 hPa16.1 kmCalmOvercast
11:35 PM0 °C-7 °C60 %1019.3 hPa16.1 kmENE (60°)5.6 km/hOvercast
11:55 PM0 °C-8 °C55 %1019 hPa16.1 kmENE (60°)5.6 km/hMostly Cloudy
Hourly data recorded from KEMV, located 0 kilometers away from Emporia, Virginia







STORIES FROM OUR PARTNERS